Weather History for KIBM - July, 2013

Change the Weather History Date:

Monday, July 15, 2013

  Actual Average (KSNY) Record (KSNY)
Temperature  
Mean Temperature 72 °F 76 °F  
Max Temperature 82 °F 91 °F 104 °F (2006)
Min Temperature 62 °F 60 °F 46 °F (1990)
Degree Days  
Heating Degree Days 0 0  
Month to date heating degree days 0  
Since 1 June heating degree days 59  
Since 1 July heating degree days 0  
Cooling Degree Days 8 11  
Month to date cooling degree days 145  
Year to date cooling degree days 304  
Since 1 June cooling degree days 282  
Growing Degree Days 22 (Base 50)    
Moisture  
Dew Point 57 °F    
Average Humidity 66    
Maximum Humidity 96    
Minimum Humidity 26    
Precipitation  
Precipitation 0.15 in 0.10 in 0.60 in (1976)
Month to date precipitation 1.42  
Year to date precipitation 11.36  
Sea Level Pressure  
Sea Level Pressure 30.21 in    
Wind  
Wind Speed 12 mph (SE)    
Max Wind Speed 24 mph    
Max Gust Speed 30 mph    
Visibility 7 miles    
Events Fog , Rain    
T = Trace of Precipitation, MM = Missing Value Source: NWS Daily Summary

Daily Weather History Graph

Daily Weather History Graph

Search for Another Location

Airport or City:

Trip Planner

Search our weather history database for the weather conditions in past years. The results will help you decide how hot, cold, wet, or windy it might be!

Date:

Astronomy

Jul. 15, 2013 Rise Set
Actual Time 6:35 AM CDT 9:25 PM CDT
Civil Twilight 6:02 AM CDT 9:58 PM CDT
Nautical Twilight 5:21 AM CDT 10:39 PM CDT
Astronomical Twilight 4:33 AM CDT 11:26 PM CDT
Moon 2:02 PM CDT (7/15) 12:35 AM CDT (7/15)
Length of Visible Light 15h 55m
Length of Day
14h 50m
Waxing Crescent, 45% of the Moon is Illuminated
Jul 15
Waxing Crescent
Jul 15
First Quarter
Jul 22
Full
Jul 29
Last Quarter
Aug 6
New

Hourly Weather History & Observations

Time (CDT) Temp. Heat Index Dew Point Humidity Pressure Visibility Wind Dir Wind Speed Gust Speed Precip Events Conditions
12:15 AM 65.7 °F - 64.0 °F 94% 30.25 in 2.0 mi ENE 9.2 mph - N/A Rain Light Rain
12:35 AM 65.7 °F - 64.0 °F 94% 30.25 in 2.5 mi East 10.4 mph - N/A   Overcast
12:55 AM 65.3 °F - 63.7 °F 94% 30.25 in 1.8 mi East 8.1 mph - N/A   Overcast
1:15 AM 65.3 °F - 63.9 °F 95% 30.25 in 2.0 mi East 9.2 mph - N/A   Overcast
1:35 AM 65.5 °F - 64.0 °F 95% 30.25 in 2.5 mi East 6.9 mph - N/A   Overcast
1:55 AM 65.5 °F - 64.0 °F 95% 30.25 in 1.2 mi East 9.2 mph - N/A   Overcast
2:15 AM 65.5 °F - 64.0 °F 95% 30.25 in 1.0 mi East 8.1 mph - N/A Rain Light Rain
2:35 AM 65.3 °F - 63.9 °F 95% 30.24 in 0.2 mi East 9.2 mph - N/A   Drizzle
2:55 AM 65.5 °F - 64.0 °F 95% 30.24 in 0.5 mi East 6.9 mph - N/A Fog Fog
3:15 AM 65.5 °F - 64.2 °F 96% 30.23 in 1.2 mi ENE 6.9 mph - 0.01 in   Drizzle
3:35 AM 65.3 °F - 64.0 °F 96% 30.23 in 1.0 mi East 6.9 mph - 0.01 in   Overcast
3:55 AM 65.5 °F - 64.2 °F 96% 30.23 in 2.0 mi ENE 6.9 mph - 0.01 in   Light Drizzle
4:15 AM 65.3 °F - 64.2 °F 96% 30.22 in 0.8 mi East 8.1 mph - N/A   Drizzle
4:35 AM 65.5 °F - 64.4 °F 96% 30.22 in 0.5 mi East 8.1 mph - 0.01 in   Light Drizzle
4:55 AM 65.5 °F - 64.4 °F 96% 30.21 in 0.5 mi East 8.1 mph - 0.01 in Fog Fog
5:15 AM 65.5 °F - 64.4 °F 96% 30.21 in 1.0 mi East 8.1 mph - N/A   Overcast
5:35 AM 65.7 °F - 64.4 °F 96% 30.22 in 3.0 mi East 8.1 mph - N/A   Overcast
5:55 AM 65.8 °F - 64.6 °F 96% 30.22 in 2.5 mi East 8.1 mph - N/A   Overcast
6:15 AM 65.5 °F - 64.4 °F 96% 30.22 in 3.0 mi SE 13.8 mph 18.4 mph 0.04 in Rain Heavy Rain
6:35 AM 65.3 °F - 64.0 °F 96% 30.22 in 4.0 mi SE 9.2 mph - 0.10 in Rain Rain
6:55 AM 65.5 °F - 64.0 °F 95% 30.22 in 4.0 mi SSE 9.2 mph - 0.11 in   Light Drizzle
7:15 AM 65.5 °F - 63.9 °F 94% 30.22 in 2.0 mi SSE 10.4 mph - 0.01 in Rain Heavy Rain
7:35 AM 65.5 °F - 63.9 °F 94% 30.22 in 2.0 mi SSE 12.7 mph - 0.01 in Rain Rain
7:55 AM 65.3 °F - 63.5 °F 94% 30.22 in 2.5 mi South 11.5 mph - 0.02 in Rain Rain
8:15 AM 65.8 °F - 63.9 °F 93% 30.23 in 2.5 mi South 10.4 mph - N/A   Overcast
8:35 AM 66.4 °F - 64.4 °F 93% 30.23 in 3.0 mi SSE 13.8 mph - N/A   Overcast
8:55 AM 67.1 °F - 64.2 °F 90% 30.23 in 4.0 mi SSE 9.2 mph - N/A   Overcast
9:15 AM 67.1 °F - 64.2 °F 90% 30.23 in 5.0 mi SSE 11.5 mph - N/A   Overcast
9:35 AM 67.1 °F - 63.7 °F 89% 30.23 in 5.0 mi SSE 12.7 mph - N/A   Overcast
9:55 AM 68.5 °F - 63.3 °F 83% 30.23 in 10.0 mi South 13.8 mph - N/A   Overcast
10:15 AM 68.2 °F - 62.8 °F 83% 30.23 in 10.0 mi South 13.8 mph - N/A   Mostly Cloudy
10:35 AM 68.0 °F - 62.6 °F 83% 30.23 in 10.0 mi South 13.8 mph - N/A   Overcast
10:55 AM 69.4 °F - 62.4 °F 78% 30.23 in 10.0 mi SSE 16.1 mph - N/A   Overcast
11:15 AM 69.8 °F - 61.9 °F 76% 30.23 in 10.0 mi SSE 16.1 mph - N/A   Overcast
11:35 AM 70.0 °F - 62.4 °F 77% 30.23 in 10.0 mi SSE 16.1 mph - N/A   Overcast
11:55 AM 69.3 °F - 61.7 °F 77% 30.24 in 10.0 mi SSE 17.3 mph - N/A   Overcast
12:15 PM 70.5 °F - 61.9 °F 74% 30.24 in 10.0 mi South 17.3 mph 20.7 mph N/A   Overcast
12:35 PM 72.5 °F - 61.3 °F 68% 30.23 in 10.0 mi South 15.0 mph - N/A   Overcast
12:55 PM 75.0 °F - 59.5 °F 58% 30.23 in 10.0 mi SSE 20.7 mph 24.2 mph N/A   Overcast
1:15 PM 76.5 °F - 58.6 °F 54% 30.23 in 10.0 mi SSE 16.1 mph 21.9 mph N/A   Overcast
1:35 PM 76.8 °F - 56.8 °F 50% 30.22 in 10.0 mi SSE 18.4 mph 24.2 mph N/A   Mostly Cloudy
1:55 PM 77.9 °F - 56.3 °F 47% 30.22 in 10.0 mi SSE 18.4 mph 27.6 mph N/A   Scattered Clouds
2:15 PM 77.9 °F - 56.1 °F 47% 30.21 in 10.0 mi SSE 16.1 mph 23.0 mph N/A   Mostly Cloudy
2:35 PM 78.4 °F - 54.9 °F 44% 30.21 in 10.0 mi SSE 16.1 mph 23.0 mph N/A   Mostly Cloudy
2:55 PM 80.6 °F 80.4 °F 54.3 °F 40% 30.21 in 10.0 mi SSE 20.7 mph 25.3 mph N/A   Scattered Clouds
3:15 PM 80.6 °F - 52.3 °F 37% 30.19 in 10.0 mi South 12.7 mph 24.2 mph N/A   Mostly Cloudy
3:35 PM 81.5 °F - 51.4 °F 35% 30.19 in 10.0 mi SSE 17.3 mph 21.9 mph N/A   Mostly Cloudy
3:55 PM 80.6 °F - 51.8 °F 37% 30.18 in 10.0 mi SSE 17.3 mph 25.3 mph N/A   Scattered Clouds
4:15 PM 81.7 °F - 50.2 °F 33% 30.18 in 10.0 mi SSE 16.1 mph 25.3 mph N/A   Clear
4:35 PM 82.9 °F - 48.0 °F 29% 30.17 in 10.0 mi South 17.3 mph 25.3 mph N/A   Clear
4:55 PM 82.4 °F - 45.0 °F 27% 30.16 in 10.0 mi SSE 16.1 mph 25.3 mph N/A   Clear
5:15 PM 82.9 °F - 45.0 °F 26% 30.16 in 10.0 mi SSE 18.4 mph 25.3 mph N/A   Clear
5:35 PM 82.4 °F - 44.4 °F 26% 30.16 in 10.0 mi SSE 17.3 mph 25.3 mph N/A   Clear
5:55 PM 82.4 °F - 44.1 °F 26% 30.15 in 10.0 mi SSE 20.7 mph 28.8 mph N/A   Clear
6:15 PM 81.9 °F - 43.9 °F 26% 30.15 in 10.0 mi South 19.6 mph 29.9 mph N/A   Clear
6:35 PM 81.5 °F - 46.0 °F 29% 30.15 in 10.0 mi South 21.9 mph 27.6 mph N/A   Clear
6:55 PM 81.0 °F - 45.9 °F 29% 30.15 in 10.0 mi SSE 20.7 mph 27.6 mph N/A   Clear
7:15 PM 80.1 °F - 47.5 °F 32% 30.15 in 10.0 mi SSE 24.2 mph 27.6 mph N/A   Clear
7:35 PM 79.0 °F - 47.5 °F 33% 30.15 in 10.0 mi SSE 20.7 mph 27.6 mph N/A   Clear
7:55 PM 78.3 °F - 47.3 °F 34% 30.15 in 10.0 mi South 18.4 mph 26.5 mph N/A   Clear
8:15 PM 77.5 °F - 46.9 °F 34% 30.15 in 10.0 mi SSE 15.0 mph 24.2 mph N/A   Clear
8:35 PM 76.5 °F - 47.7 °F 36% 30.16 in 10.0 mi SSE 15.0 mph - N/A   Clear
8:55 PM 74.7 °F - 46.9 °F 37% 30.17 in 10.0 mi SSE 13.8 mph - N/A   Clear
9:15 PM 72.7 °F - 46.0 °F 39% 30.17 in 10.0 mi SSE 16.1 mph 20.7 mph N/A   Clear
9:35 PM 71.2 °F - 45.5 °F 40% 30.18 in 10.0 mi SSE 11.5 mph - N/A   Clear
9:55 PM 69.6 °F - 46.4 °F 43% 30.18 in 10.0 mi SSE 11.5 mph - N/A   Clear
10:15 PM 68.9 °F - 46.4 °F 44% 30.19 in 10.0 mi SSE 11.5 mph - N/A   Clear
10:35 PM 67.1 °F - 46.9 °F 48% 30.20 in 10.0 mi SSE 9.2 mph - N/A   Clear
10:55 PM 65.5 °F - 47.3 °F 52% 30.20 in 10.0 mi SSE 11.5 mph - N/A   Clear
11:15 PM 64.9 °F - 47.7 °F 54% 30.21 in 10.0 mi SSE 10.4 mph - N/A   Clear
11:35 PM 63.5 °F - 48.0 °F 57% 30.21 in 10.0 mi SSE 9.2 mph - N/A   Clear
11:55 PM 62.4 °F - 47.8 °F 59% 30.21 in 10.0 mi South 6.9 mph - N/A   Clear